Location: ??? ?????
(25.7502°N, 32.6774°E)
Time: 19:30:58
(UTC+00:00)

Daily predictions for brighter satellites

Satellite Brightness Start Highest point End
(mag) Time Altitude Azimuth Time Altitude Azimuth Time Altitude Azimuth
FALCON 9 R/B 3.7 16:15:32 10° W 16:20:35 59° N 16:38:45 10° ENE
CZ-2C R/B 2.6 16:22:26 10° NNE 16:27:31 57° E 16:32:39 10° S
Cosmos 2346 Rocket 4.4 16:24:04 10° N 16:30:07 76° E 16:36:08 10° S
SAR-Lupe-4 4.0 16:27:24 10° NNE 16:30:48 39° E 16:34:09 10° S
Cosmos 2285 Rocket 4.2 16:25:06 10° N 16:31:25 57° ENE 16:37:42 10° SSE
HJ-1C 4.5 16:29:05 10° SE 16:31:48 25° ENE 16:34:32 10° NNE
CZ-2C R/B 4.2 16:29:56 10° S 16:34:39 45° W 16:39:14 10° NNW
CZ-4 R/B 1.5 16:30:35 10° SSE 16:34:40 63° ENE 16:38:50 10° N
ISS -2.3 16:33:19 10° WNW 16:36:27 37° SW 16:39:35 10° SSE
H-2A R/B 2.0 16:32:38 10° SSE 16:37:50 78° ENE 16:42:55 10° N
Cosmos 1908 3.7 16:35:01 10° SSE 16:38:36 38° E 16:42:10 10° NNE
ATLAS 5 CENTAUR R/B 1.8 16:38:17 10° S 16:41:45 34° ESE 16:45:19 10° NE
Atlas Centaur 2 3.3 16:33:26 10° W 16:41:52 74° NNW 16:50:13 10° ENE
IRS-1C Rocket 4.1 16:39:58 10° SSE 16:45:14 87° ENE 16:50:31 10° NNW
Meteor 1-16 Rocket 4.1 16:41:05 10° S 16:46:16 60° E 16:51:31 10° NNE
ATLAS CENTAUR R/B 4.2 16:43:49 10° WNW 16:47:06 21° WSW 16:50:30 10° SSW
Cosmos 1953 2.3 16:45:33 10° S 16:49:35 83° E 16:53:38 10° N
SAR-Lupe-1 4.0 16:46:32 10° NNE 16:50:06 89° E 16:53:41 10° SSW
ATLAS 2AS CENTAUR R/B 4.2 16:46:54 10° SE 16:51:09 16° ESE 16:55:26 10° ENE
Cosmos 2082 Rocket 4.2 16:47:21 10° SW 16:52:26 33° WNW 16:57:32 10° N
SEDSat Delta rocket 4.1 16:45:50 10° WSW 16:52:32 74° NNW 16:58:41 10° ENE
Cosmos 1689 Rocket 3.5 16:56:27 10° N 16:59:07 39° WNW 17:01:47 10° SSW
Lacrosse 5 rocket 1.1 16:56:02 10° SSW 16:59:47 65° ESE 17:03:47 10° NE
Cosmos 2369 3.7 16:54:14 10° NNW 16:59:56 67° ENE 17:05:34 10° SSE
Cosmos 332 Rocket 4.4 16:55:38 10° NNW 17:00:24 58° WSW 17:05:06 10° S
Okean-O 2.7 16:58:22 10° S 17:02:47 81° WSW 17:07:13 10° NNW
Cosmos 2233 Rocket 4.3 16:56:51 10° S 17:03:01 72° W 17:09:18 10° N
SJ-6B 4.1 17:12:40 20° ENE 17:12:40 20° ENE 17:15:22 10° NNE
YAOGAN 1 3.6 17:09:04 10° S 17:13:13 46° W 17:17:22 10° NNW
Aurora 2 Rocket 2.9 17:09:32 10° WSW 17:13:30 55° SSE 17:16:35 23° E
Cosmos 1703 3.7 17:10:40 10° NNE 17:14:18 38° E 17:15:53 26° SE
Cosmos 2278 3.9 17:09:11 10° N 17:14:42 51° ENE 17:18:37 19° SE
Cosmos 1346 Rocket 2.7 17:12:07 10° N 17:15:59 65° E 17:19:16 14° SSE
USA 186 2.5 17:16:10 32° E 17:16:28 33° ENE 17:19:28 10° N
Delta 142 4.0 17:14:50 10° WSW 17:19:40 73° SSE 17:23:35 23° E
Cosmos 1602 Rocket 4.5 17:17:04 10° NNE 17:20:46 27° E 17:20:51 27° E
Cosmos 1315 Rocket 4.2 17:21:27 10° SSW 17:25:19 41° W 17:29:11 10° N
Meteor 1-21 Rocket 4.1 17:20:23 10° N 17:25:58 90° E 17:31:29 10° S
Lacrosse 4 Rocket 2.9 17:24:28 10° N 17:27:27 21° NE 17:27:27 21° NE
Cosmos 1891 Rocket 4.5 17:21:44 10° S 17:28:01 68° E 17:34:25 10° N
GPS 2-15 Rocket1 3.7 17:27:22 10° WSW 17:31:42 39° S 17:32:43 34° SSE
Okean 1-7 Rocket 3.9 17:27:13 10° N 17:31:45 69° W 17:36:17 10° S
Cosmos 292 Rocket 4.4 17:31:00 10° N 17:35:26 35° ENE 17:35:35 35° ENE
USA 32 4.0 17:32:01 10° S 17:37:15 84° W 17:42:29 10° N
Cosmos 2034 Rocket 4.1 17:34:14 16° SSE 17:38:55 48° E 17:44:50 10° NNE
Cosmos 2344 4.1 17:32:05 10° S 17:39:17 33° ESE 17:45:44 10° NE
Cosmos 1300 2.5 17:38:25 40° S 17:39:41 78° E 17:43:29 10° N
CZ-4C R/B 1.8 17:35:33 10° SSW 17:39:59 78° WNW 17:45:06 10° NNE
CSL-04 Rocket 4.1 17:34:55 10° S 17:40:12 60° WSW 17:45:26 10° NNW
Resurs 01 Rocket 4.0 17:43:32 10° NE 17:43:32 10° NE 17:43:39 10° NE
Cosmos 1626 Rocket 3.4 17:39:11 10° N 17:43:35 84° E 17:45:06 41° S
Cosmos 1420 Rocket 4.3 17:43:07 10° NNW 17:48:14 64° WSW 17:51:32 22° S
SL-16 R/B 3.3 17:44:53 10° N 17:49:06 28° NE 17:49:06 28° NE
Cosmos 1464 Rocket 4.0 17:45:46 10° S 17:52:08 83° W 17:58:29 10° N
OBJECT-B 2.7 17:56:34 25° N 17:56:34 25° N 17:58:02 10° N
Molniya-1 3.9 17:52:01 10° SSW 17:55:32 89° ESE 18:03:33 10° NNE
Cosmos 1452 Rocket 3.4 17:52:59 10° NNW 17:58:16 78° ENE 17:58:57 66° SE
CZ-2C R/B 2.1 17:54:54 10° WNW 17:57:26 39° W 17:57:26 39° W
MetOp-A 4.4 17:56:14 24° S 17:59:30 67° WSW 18:04:49 10° NNW
Cosmos 1980 Rocket 3.0 17:56:16 10° NNW 18:01:38 47° WSW 18:05:09 21° SSW
IRS-1A Rocket 4.1 18:01:15 63° ESE 18:01:41 66° ENE 18:07:10 10° N
Cosmos 1269 Rocket 3.9 18:02:36 69° ENE 18:02:36 69° ENE 18:07:35 10° NNE
OAO 2 Rocket 4.1 17:58:15 10° NW 18:03:04 41° NNE 18:03:32 40° NNE
CENTAUR R/B 4.1 17:57:12 10° N 18:04:31 30° NE 18:05:31 30° ENE
Lacrosse 5 3.9 18:03:50 10° WNW 18:07:42 22° WSW 18:10:15 15° SSW
Meteor 1-11 4.1 18:03:01 10° N 18:08:49 85° E 18:09:33 69° SSE
Centaur AC-119 3.9 18:06:31 10° W 18:07:35 26° W 18:07:35 26° W
MOS 1 4.1 18:11:26 77° SE 18:11:48 82° ENE 18:17:27 10° N
Nadezhda 4 Rocket 4.2 18:06:39 10° N 18:12:08 54° ENE 18:12:08 54° ENE
Ariane Rocket 3.3 18:25:23 63° NW 18:25:23 63° NW 18:29:49 10° NNW
NOSS 3-4 (A) 4.0 18:22:39 10° SW 18:28:12 51° WNW 18:33:56 10° NNE
NOSS 3-4 (C) 4.0 18:22:40 10° SW 18:28:17 52° WNW 18:34:04 10° NNE
Atlas Centaur 2 3.1 18:23:52 10° WNW 18:32:21 64° N 18:33:47 56° NE
ATLAS 2A CENTAUR R/B 4.5 18:01:57 10° WNW 18:33:37 47° SW 18:36:04 40° S
SEDSat Delta rocket 4.4 18:33:22 10° WNW 18:39:09 48° NNW 18:39:09 48° NNW
ATLAS 2AS CENTAUR R/B 3.0 18:33:31 10° SSW 18:41:20 78° WNW 18:49:16 10° NNE
Cosmos 2322 Rocket 3.3 18:35:54 10° NNW 18:39:17 36° N 18:39:17 36° N
Centaur D-1AR AC-36 4.4 18:40:17 10° SW 18:42:54 17° SW 18:42:54 17° SW
ATLAS 3B CENTAUR R/B 4.1 18:41:05 10° WSW 19:01:24 70° SSE 19:02:15 69° SE
Lacrosse 4 Rocket 4.5 19:03:09 10° WNW 19:03:48 13° WNW 19:03:48 13° WNW
Cosmos 2360 Rocket 4.5 19:22:38 10° NNW 19:24:03 18° NNW 19:24:03 18° NNW
CENTAUR R/B 4.2 19:47:08 10° NW 19:52:43 42° WNW 19:52:43 42° WNW
